Poughkeepsie, NY

12:14 AM EDT on July 24, 2017 (GMT -0400)
Dutchess County

Weather History for KPOU - December, 2012

Change the Weather History Date:

Friday, December 28, 2012

  Actual Average Record
Temperature  
Mean Temperature 29 °F 27 °F  
Max Temperature 38 °F 37 °F 64 °F (1982)
Min Temperature 20 °F 18 °F -13 °F (1950)
Degree Days  
Heating Degree Days 36 38  
Month to date heating degree days 783 935  
Since 1 July heating degree days 1929 2213  
Cooling Degree Days 0 0  
Month to date cooling degree days 0 0  
Year to date cooling degree days 895 672  
Moisture  
Dew Point 20 °F    
Average Humidity 70    
Maximum Humidity 88    
Minimum Humidity 52    
Precipitation  
Precipitation 0.00 in 0.10 in 0.86 in (1959)
Month to date precipitation 4.02 3.23  
Year to date precipitation 36.28 46.23  
Sea Level Pressure  
Sea Level Pressure 30.00 in    
Wind  
Wind Speed 3 mph (NNW)    
Max Wind Speed 14 mph    
Max Gust Speed 17 mph    
Visibility 10 miles    
Events      
T = Trace of Precipitation, MM = Missing Value Source: NWS Daily Summary

Daily Weather History Graph

Daily Weather History Graph

Search for Another Location

Airport or City:

Trip Planner

Search our weather history database for the weather conditions in past years. The results will help you decide how hot, cold, wet, or windy it might be!

Date:

Astronomy

Dec. 28, 2012 Rise Set
Actual Time 7:21 AM EST 4:33 PM EST
Civil Twilight 6:50 AM EST 5:04 PM EST
Nautical Twilight 6:15 AM EST 5:39 PM EST
Astronomical Twilight 5:41 AM EST 6:13 PM EST
Moon 5:08 PM EST (12/28) 7:13 AM EST (12/28)
Length of Visible Light 10h 14m
Length of Day
9h 11m
Full, 100% of the Moon is Illuminated
Dec 28
Full
Jan 4
Last Quarter
Jan 11
New
Jan 18
First Quarter
Jan 26
Full

Hourly Weather History & Observations

Time (EST) Temp. Windchill Dew Point Humidity Pressure Visibility Wind Dir Wind Speed Gust Speed Precip Events Conditions
12:53 AM 30.0 °F 21.7 °F 18.0 °F 61% 29.82 in 10.0 mi WNW 9.2 mph - N/A   Overcast
1:53 AM 30.0 °F 23.2 °F 17.1 °F 59% 29.85 in 10.0 mi WNW 6.9 mph - N/A   Scattered Clouds
2:53 AM 30.0 °F 20.5 °F 17.1 °F 59% 29.87 in 10.0 mi NW 11.5 mph - N/A   Clear
3:53 AM 27.0 °F 23.0 °F 18.0 °F 69% 29.91 in 10.0 mi ESE 3.5 mph - N/A   Partly Cloudy
4:53 AM 28.0 °F - 17.1 °F 63% 29.92 in 10.0 mi Calm Calm - N/A   Overcast
6:53 AM 27.0 °F - 19.9 °F 75% 29.99 in 10.0 mi Calm Calm - N/A   Overcast
7:53 AM 27.0 °F - 21.0 °F 78% 30.00 in 10.0 mi Calm Calm - N/A   Overcast
8:53 AM 28.0 °F 24.2 °F 21.0 °F 75% 30.02 in 10.0 mi North 3.5 mph - N/A   Clear
9:53 AM 30.0 °F - 19.9 °F 66% 30.04 in 10.0 mi Calm Calm - N/A   Mostly Cloudy
10:53 AM 34.0 °F 29.8 °F 21.0 °F 59% 30.05 in 10.0 mi NW 4.6 mph - N/A   Partly Cloudy
11:53 AM 35.1 °F 29.3 °F 21.0 °F 57% 30.01 in 10.0 mi NNW 6.9 mph - N/A   Clear
12:53 PM 36.0 °F 32.1 °F 21.0 °F 55% 30.00 in 10.0 mi Variable 4.6 mph - N/A   Clear
1:53 PM 37.9 °F 32.1 °F 21.0 °F 51% 29.99 in 10.0 mi NNW 8.1 mph - N/A   Clear
2:53 PM 37.9 °F 34.4 °F 21.9 °F 53% 30.01 in 10.0 mi NNW 4.6 mph - N/A   Clear
3:53 PM 36.0 °F 32.1 °F 21.0 °F 55% 30.03 in 10.0 mi NW 4.6 mph - N/A   Clear
4:53 PM 35.1 °F 32.2 °F 21.0 °F 57% 30.03 in 10.0 mi North 3.5 mph - N/A   Clear
5:53 PM 32.0 °F - 21.0 °F 64% 30.07 in 10.0 mi Calm Calm - N/A   Clear
6:53 PM 30.0 °F 26.5 °F 21.0 °F 69% 30.05 in 10.0 mi NNE 3.5 mph - N/A   Clear
7:53 PM 28.0 °F - 21.0 °F 75% 30.06 in 10.0 mi Calm Calm - N/A   Clear
8:53 PM 25.0 °F - 19.9 °F 81% 30.05 in 10.0 mi Calm Calm - N/A   Clear
9:53 PM 25.0 °F - 19.9 °F 81% 30.07 in 10.0 mi Calm Calm - N/A   Clear
10:53 PM 23.0 °F - 19.0 °F 85% 30.07 in 10.0 mi Calm Calm - N/A   Clear
11:53 PM 19.9 °F - 16.0 °F 85% 30.06 in 10.0 mi Calm Calm - N/A   Clear